Change the Weather History Date:

Saturday, March 8, 2014

  Actual Average Record
Temperature  
Mean Temperature 12 °F -  
Max Temperature 28 °F 23 °F 46 °F (2015)
Min Temperature -3 °F 5 °F -16 °F (2003)
Degree Days  
Heating Degree Days 52    
Moisture  
Dew Point 6 °F    
Average Humidity 78    
Maximum Humidity 86    
Minimum Humidity 65    
Precipitation  
Precipitation 0.00 in - - ()
Sea Level Pressure  
Sea Level Pressure 30.28 in    
Wind  
Wind Speed 8 mph (SW)    
Max Wind Speed 17 mph    
Max Gust Speed -    
Visibility 10 miles    
Events Snow    
Averages and records for this station are not official NWS values.
T = Trace of Precipitation, MM = Missing Value Source: NWS Daily Summary

Daily Weather History Graph

Daily Weather History Graph

Search for Another Location

Airport or City:

Trip Planner

Search our weather history database for the weather conditions in past years. The results will help you decide how hot, cold, wet, or windy it might be!

Date:

Astronomy

Mar. 08, 2014 Rise Set
Actual Time 6:56 AM CST 6:24 PM CST
Civil Twilight 6:25 AM CST 6:55 PM CST
Nautical Twilight 5:49 AM CST 7:31 PM CST
Astronomical Twilight 5:13 AM CST 8:08 PM CST
Moon 11:11 AM CST (3/8) 1:51 AM CST (3/8)
Length of Visible Light 12h 29m
Length of Day
11h 28m
First Quarter, 52% of the Moon is Illuminated
Mar 8
First Quarter
Mar 16
Full
Mar 23
Last Quarter
Mar 30
New
Apr 7
First Quarter

Hourly Weather History & Observations

Time (CST) Temp. Windchill Dew Point Humidity Pressure Visibility Wind Dir Wind Speed Gust Speed Precip Events Conditions
12:47 AM 1.4 °F -11.3 °F -4.0 °F 78% 30.34 in 10.0 mi NW 6.9 mph - N/A Snow Light Snow
12:58 AM 1.0 °F -10.3 °F -4.0 °F 79% 30.43 in 10.0 mi WNW 5.8 mph - 0.00 in Snow Light Snow
1:24 AM 1.4 °F -12.5 °F -4.0 °F 78% 30.34 in 10.0 mi WNW 8.1 mph - N/A   Mostly Cloudy
1:39 AM 3.2 °F -9.1 °F -2.2 °F 78% 30.34 in 10.0 mi WNW 6.9 mph - N/A Snow Light Snow
1:58 AM 1.6 °F -9.7 °F -3.8 °F 78% 30.42 in 10.0 mi WNW 5.8 mph - 0.00 in Snow Light Snow
1:59 AM 1.4 °F -9.9 °F -4.0 °F 78% 30.34 in 10.0 mi WNW 5.8 mph - N/A   Overcast
2:09 AM 1.4 °F -11.3 °F -4.0 °F 78% 30.35 in 10.0 mi WNW 6.9 mph - N/A Snow Light Snow
2:22 AM 1.4 °F -9.9 °F -4.0 °F 78% 30.34 in 10.0 mi WNW 5.8 mph - N/A   Partly Cloudy
2:32 AM -0.4 °F -12.0 °F -5.8 °F 78% 30.34 in 10.0 mi WNW 5.8 mph - N/A Snow Light Snow
2:38 AM -0.4 °F -8.3 °F -5.8 °F 78% 30.34 in 10.0 mi WNW 3.5 mph - N/A   Partly Cloudy
2:58 AM 1.2 °F - -3.5 °F 81% 30.41 in 10.0 mi West 2.3 mph - 0.00 in   Clear
3:58 AM -0.4 °F -8.3 °F -4.7 °F 82% 30.42 in 10.0 mi West 3.5 mph - N/A   Clear
4:58 AM -3.8 °F -12.2 °F -8.5 °F 80% 30.41 in 10.0 mi SW 3.5 mph - N/A   Clear
5:58 AM -3.1 °F -11.4 °F -7.2 °F 82% 30.42 in 10.0 mi SW 3.5 mph - N/A   Scattered Clouds
6:58 AM 0.3 °F -7.5 °F -4.0 °F 82% 30.42 in 10.0 mi WSW 3.5 mph - N/A   Mostly Cloudy
7:58 AM 3.9 °F -9.4 °F -0.6 °F 82% 30.40 in 10.0 mi SW 8.1 mph - N/A   Scattered Clouds
8:58 AM 7.5 °F -1.1 °F 1.0 °F 75% 30.40 in 10.0 mi SSW 4.6 mph - N/A   Clear
9:58 AM 14.2 °F 2.2 °F 5.0 °F 67% 30.37 in 10.0 mi SSW 9.2 mph - N/A   Mostly Cloudy
10:58 AM 17.1 °F 4.3 °F 7.2 °F 65% 30.36 in 10.0 mi SW 11.5 mph - N/A   Mostly Cloudy
11:58 AM 19.6 °F 7.4 °F 10.0 °F 66% 30.34 in 10.0 mi SSW 11.5 mph - N/A   Mostly Cloudy
12:58 PM 22.3 °F 10.2 °F 12.6 °F 66% 30.31 in 10.0 mi SSW 12.7 mph - N/A   Overcast
1:58 PM 23.4 °F 11.6 °F 14.7 °F 70% 30.27 in 10.0 mi SSW 12.7 mph - N/A   Overcast
2:58 PM 24.6 °F 12.2 °F 16.3 °F 71% 30.24 in 10.0 mi South 15.0 mph - N/A   Overcast
3:58 PM 26.2 °F 13.4 °F 18.3 °F 72% 30.21 in 10.0 mi South 17.3 mph - N/A   Overcast
4:58 PM 27.5 °F 15.4 °F 20.8 °F 76% 30.18 in 10.0 mi South 16.1 mph - N/A   Overcast
5:58 PM 28.2 °F 16.3 °F 22.6 °F 80% 30.14 in 10.0 mi South 16.1 mph - N/A   Overcast
6:58 PM 26.8 °F 14.5 °F 21.4 °F 80% 30.09 in 10.0 mi South 16.1 mph - N/A   Clear
7:58 PM 26.1 °F 14.0 °F 21.2 °F 82% 30.06 in 10.0 mi South 15.0 mph - N/A   Clear
8:58 PM 25.2 °F 13.3 °F 21.0 °F 84% 30.03 in 10.0 mi South 13.8 mph - N/A   Clear
9:58 PM 25.7 °F 13.1 °F 21.7 °F 85% 29.99 in 10.0 mi South 16.1 mph - N/A   Clear
10:58 PM 26.2 °F 14.2 °F 22.5 °F 86% 29.93 in 10.0 mi SSW 15.0 mph - N/A   Clear
11:58 PM 27.0 °F 15.2 °F 23.4 °F 86% 29.88 in 10.0 mi SSW 15.0 mph - N/A   Clear